Date String (YYYY-MM-DD hh:mm:ss) UTC,Instrument flags,Ambient pressure (hPa),Sample flow (lpm),Bypass flow (lpm),Sample temperature (°C),Ambient temperature (°C),ASC tube jacket temperature (°C),LED temperature (°C),Box temperature (°C),Sample RH (%),Span deviation,Mass concentration (μg/m³),Mass concentration (μg/m³),Mass concentration (μg/m³)
DateTimeUTC,F1_M11,P_M11,Q1_M11,Q2_M11,T1_M11,T2_M11,T3_M11,T4_M11,T5_M11,U1_M11,ZSPAN_M11,X2_M11,X0_M11,X1_M11
2023-04-14 11:00:00,,0819.7,5.00,0.00,25.9,23.9,00.0,34.5,27.4,15.5,0000.0,0003.87,0010.70,0002.34
2023-04-14 11:01:00,,0819.8,5.00,0.00,25.9,23.9,00.0,34.5,27.3,15.5,0000.0,0003.91,0010.45,0002.34
2023-04-14 11:02:00,,0819.8,5.01,0.00,25.9,23.9,00.0,34.4,27.4,15.6,0000.0,0003.96,0010.78,0002.34
2023-04-14 11:03:00,,0819.8,5.00,0.00,25.9,23.9,00.0,34.4,27.3,15.6,0000.0,0003.94,0010.64,0002.35
2023-04-14 11:04:00,,0819.8,4.98,0.00,25.8,23.9,00.0,34.4,27.3,15.7,0000.0,0003.89,0010.33,0002.34
2023-04-14 11:05:00,,0820.1,5.00,0.00,25.8,23.9,00.0,34.4,27.2,15.7,0000.0,0003.80,0010.14,0002.32
2023-04-14 11:06:00,,0819.9,5.02,0.00,25.8,23.9,00.0,34.4,27.2,15.7,0000.0,0003.79,0009.88,0002.32
2023-04-14 11:07:00,,0819.8,4.99,0.00,25.8,23.9,00.0,34.4,27.2,15.7,0000.0,0003.80,0009.93,0002.34
2023-04-14 11:08:00,,0819.8,4.99,0.00,25.8,23.9,00.0,34.3,27.2,15.8,0000.0,0003.77,0010.39,0002.35
2023-04-14 11:09:00,,0819.9,5.00,0.00,25.8,23.9,00.0,34.3,27.2,15.8,0000.0,0003.80,0010.96,0002.34
2023-04-14 11:10:00,,0820.0,5.00,0.00,25.8,23.8,00.0,34.3,27.2,15.9,0000.0,0003.83,0011.04,0002.35
2023-04-14 11:11:00,,0819.9,5.01,0.00,25.7,23.8,00.0,34.3,27.1,15.9,0000.0,0003.89,0011.88,0002.37
2023-04-14 11:12:00,,0819.9,5.01,0.00,25.7,23.8,00.0,34.3,27.1,15.9,0000.0,0003.86,0012.01,0002.37
2023-04-14 11:13:00,,0820.2,5.00,0.00,25.7,23.8,00.0,34.3,27.1,16.0,0000.0,0003.82,0012.35,0002.35
2023-04-14 11:14:00,,0820.1,4.99,0.00,25.7,23.7,00.0,34.2,27.1,16.0,0000.0,0003.86,0013.42,0002.35
2023-04-14 11:15:00,,0820.3,4.99,0.00,25.7,23.7,00.0,34.2,27.1,16.1,0000.0,0003.87,0013.42,0002.35
2023-04-14 11:16:00,,0820.0,4.99,0.00,25.7,23.7,00.0,34.2,27.1,16.2,0000.0,0003.92,0014.07,0002.36
2023-04-14 11:17:00,,0820.0,5.00,0.00,25.7,23.7,00.0,34.2,27.1,16.2,0000.0,0003.89,0013.99,0002.36
2023-04-14 11:18:00,,0820.1,5.01,0.00,25.6,23.7,00.0,34.2,27.1,16.3,0000.0,0003.87,0013.58,0002.36
2023-04-14 11:19:00,,0820.0,5.01,0.00,25.6,23.7,00.0,34.2,27.1,16.3,0000.0,0003.86,0012.86,0002.37
2023-04-14 11:20:00,,0820.0,5.01,0.00,25.6,23.7,00.0,34.1,27.1,16.4,0000.0,0003.86,0012.42,0002.38
2023-04-14 11:21:00,,0820.0,5.00,0.00,25.6,23.6,00.0,34.1,27.1,16.5,0000.0,0003.84,0012.44,0002.38
2023-04-14 11:22:00,,0820.0,5.00,0.00,25.6,23.6,00.0,34.1,27.0,16.5,0000.0,0003.83,0011.72,0002.40
2023-04-14 11:23:00,,0820.0,5.00,0.00,25.6,23.6,00.0,34.1,27.0,16.6,0000.0,0003.82,0012.13,0002.39
2023-04-14 11:24:00,,0820.0,4.99,0.00,25.6,23.6,00.0,34.1,27.0,16.6,0000.0,0003.83,0011.84,0002.41
2023-04-14 11:25:00,,0820.0,5.02,0.00,25.6,23.6,00.0,34.1,26.9,16.7,0000.0,0003.81,0011.10,0002.42
2023-04-14 11:26:00,,0820.0,5.00,0.00,25.5,23.6,00.0,34.1,26.9,16.7,0000.0,0003.80,0012.05,0002.42
2023-04-14 11:27:00,,0820.0,5.00,0.00,25.5,23.6,00.0,34.0,27.0,16.8,0000.0,0003.84,0012.77,0002.43
2023-04-14 11:28:00,,0820.0,5.00,0.00,25.5,23.5,00.0,34.0,27.0,16.8,0000.0,0003.89,0013.34,0002.44
2023-04-14 11:29:00,,0820.0,5.00,0.00,25.5,23.5,00.0,34.0,26.9,16.9,0000.0,0003.96,0013.67,0002.42
2023-04-14 11:30:00,,0820.0,5.00,0.00,25.5,23.5,00.0,34.0,26.9,16.9,0000.0,0003.96,0013.64,0002.40
2023-04-14 11:31:00,,0820.1,5.01,0.00,25.5,23.5,00.0,34.0,26.9,16.9,0000.0,0003.95,0013.65,0002.39
2023-04-14 11:32:00,,0820.1,5.01,0.00,25.4,23.4,00.0,34.0,26.9,16.9,0000.0,0003.96,0013.69,0002.37
2023-04-14 11:33:00,,0820.1,4.99,0.00,25.4,23.4,00.0,33.9,26.8,17.0,0000.0,0003.93,0013.95,0002.34
2023-04-14 11:34:00,,0820.1,4.99,0.00,25.4,23.4,00.0,33.9,26.8,17.0,0000.0,0003.92,0013.51,0002.34
2023-04-14 11:35:00,,0820.1,5.00,0.00,25.4,23.4,00.0,33.9,26.8,17.0,0000.0,0003.93,0013.79,0002.34
2023-04-14 11:36:00,,0820.1,5.00,0.00,25.4,23.4,00.0,33.9,26.7,17.1,0000.0,0003.95,0014.79,0002.34
2023-04-14 11:37:00,,0820.1,4.99,0.00,25.3,23.3,00.0,33.9,26.8,17.1,0000.0,0003.95,0013.96,0002.35
2023-04-14 11:38:00,,0820.1,4.99,0.00,25.3,23.3,00.0,33.9,26.8,17.1,0000.0,0003.95,0012.75,0002.37
2023-04-14 11:39:00,,0820.1,5.01,0.00,25.3,23.3,00.0,33.8,26.7,17.1,0000.0,0003.91,0012.17,0002.38
2023-04-14 11:40:00,,0820.1,5.01,0.00,25.3,23.3,00.0,33.8,26.7,17.2,0000.0,0003.90,0012.03,0002.39
2023-04-14 11:41:00,,0820.1,4.99,0.00,25.3,23.3,00.0,33.8,26.7,17.2,0000.0,0003.95,0012.39,0002.41
2023-04-14 11:42:00,,0820.1,4.99,0.00,25.3,23.3,00.0,33.8,26.7,17.2,0000.0,0003.94,0012.94,0002.42
2023-04-14 11:43:00,,0820.1,5.01,0.00,25.3,23.2,00.0,33.8,26.6,17.2,0000.0,0003.88,0013.53,0002.41
2023-04-14 11:44:00,,0820.1,5.01,0.00,25.2,23.2,00.0,33.8,26.7,17.2,0000.0,0003.94,0013.63,0002.43
2023-04-14 11:45:00,,0820.0,4.99,0.00,25.2,23.2,00.0,33.7,26.7,17.3,0000.0,0003.95,0013.35,0002.45
2023-04-14 11:46:00,,0820.1,4.99,0.00,25.2,23.2,00.0,33.7,26.6,17.3,0000.0,0003.95,0012.65,0002.45
2023-04-14 11:47:00,,0820.0,5.01,0.00,25.2,23.2,00.0,33.7,26.6,17.3,0000.0,0003.93,0011.06,0002.44
2023-04-14 11:48:00,,0819.9,5.00,0.00,25.1,23.2,00.0,33.7,26.6,17.4,0000.0,0003.91,0011.29,0002.42
2023-04-14 11:49:00,,0820.0,4.99,0.00,25.1,23.2,00.0,33.7,26.6,17.4,0000.0,0003.90,0011.51,0002.39
2023-04-14 11:50:00,,0820.1,4.99,0.00,25.1,23.2,00.0,33.7,26.6,17.5,0000.0,0003.86,0011.99,0002.38
2023-04-14 11:51:00,,0820.3,5.00,0.00,25.1,23.1,00.0,33.6,26.6,17.4,0000.0,0003.90,0012.31,0002.39
2023-04-14 11:52:00,,0820.0,5.01,0.00,25.1,23.0,00.0,33.6,26.5,17.5,0000.0,0003.85,0012.08,0002.38
2023-04-14 11:53:00,,0820.0,5.01,0.00,25.0,23.0,00.0,33.6,26.5,17.5,0000.0,0003.85,0011.59,0002.38
2023-04-14 11:54:00,,0820.0,5.00,0.00,25.0,22.9,00.0,33.6,26.5,17.4,0000.0,0003.87,0010.97,0002.39
2023-04-14 11:55:00,,0820.0,4.98,0.00,25.0,22.8,00.0,33.6,26.4,17.4,0000.0,0003.85,0010.63,0002.38
2023-04-14 11:56:00,,0820.1,5.01,0.00,25.0,22.8,00.0,33.5,26.4,17.4,0000.0,0003.82,0010.44,0002.36
2023-04-14 11:57:00,,0820.1,5.00,0.00,24.9,22.8,00.0,33.5,26.4,17.4,0000.0,0003.80,0010.37,0002.36
2023-04-14 11:58:00,,0820.1,5.01,0.00,24.9,22.8,00.0,33.5,26.3,17.4,0000.0,0003.79,0010.66,0002.35
2023-04-14 11:59:00,,0820.1,5.01,0.00,24.9,22.7,00.0,33.5,26.3,17.5,0000.0,,,
